Ocean City Weather Center

Moon Phase Calendar



Online Cameras

 


      

Current Conditions in Ocean City
10/15/2021 8:32:22 PM

69°F
Feels Like 70
Clear
Humidity
85%
Pressure
29.91"
Wind
3.4 mph (SW)
Dew Point
65°F
UV Index
0/10 (Low)
Visibility
6 mi

Hourly Forecast

Date & Time Fri, Oct 15
8:00 PM
Fri, Oct 15
9:00 PM
Fri, Oct 15
10:00 PM
Fri, Oct 15
11:00 PM
Sat, Oct 16
12:00 AM
Sat, Oct 16
1:00 AM
Sat, Oct 16
2:00 AM
Sat, Oct 16
3:00 AM
Sat, Oct 16
4:00 AM
Sat, Oct 16
5:00 AM
Sat, Oct 16
6:00 AM
Sat, Oct 16
7:00 AM
Sat, Oct 16
8:00 AM
Sat, Oct 16
9:00 AM
Sat, Oct 16
10:00 AM
Sat, Oct 16
11:00 AM
Sat, Oct 16
12:00 PM
Sat, Oct 16
1:00 PM
Sat, Oct 16
2:00 PM
Sat, Oct 16
3:00 PM
Sat, Oct 16
4:00 PM
Sat, Oct 16
5:00 PM
Sat, Oct 16
6:00 PM
Sat, Oct 16
7:00 PM
Sat, Oct 16
8:00 PM
Sat, Oct 16
9:00 PM
Sat, Oct 16
10:00 PM
Sat, Oct 16
11:00 PM
Sun, Oct 17
12:00 AM
Sun, Oct 17
1:00 AM
Sun, Oct 17
2:00 AM
Sun, Oct 17
3:00 AM
Sun, Oct 17
4:00 AM
Sun, Oct 17
5:00 AM
Sun, Oct 17
6:00 AM
Sun, Oct 17
7:00 AM
Sun, Oct 17
8:00 AM
Sun, Oct 17
9:00 AM
Sun, Oct 17
10:00 AM
Sun, Oct 17
11:00 AM
Sun, Oct 17
12:00 PM
Sun, Oct 17
1:00 PM
Sun, Oct 17
2:00 PM
Sun, Oct 17
3:00 PM
Sun, Oct 17
4:00 PM
Sun, Oct 17
5:00 PM
Sun, Oct 17
6:00 PM
Sun, Oct 17
7:00 PM
Condition
Clear

Clear

Clear

Clear

Clear

Clear

Clear

Clear

Clear

Clear

Clear

Clear

Clear

Clear

Clear

Clear

Clear

Clear

Clear

Clear

Clear

Rain

Rain

Rain

Rain

Rain

Rain

Clouds

Clouds

Clouds

Clouds

Clear

Clear

Clear

Clear

Clear

Clear

Clear

Clear

Clear

Clear

Clear

Clouds

Clouds

Clouds

Clouds

Clouds

Clouds
Temperature 69°F69°F69°F69°F69°F69°F69°F69°F69°F69°F69°F69°F69°F70°F71°F72°F72°F72°F72°F72°F72°F71°F64°F64°F60°F59°F59°F59°F60°F58°F57°F57°F56°F56°F55°F54°F54°F55°F57°F59°F61°F62°F62°F63°F61°F61°F61°F60°F
Feels Like 70°F70°F70°F70°F70°F70°F70°F69°F69°F70°F70°F70°F70°F71°F72°F72°F73°F73°F73°F73°F73°F72°F64°F64°F60°F58°F58°F59°F59°F57°F56°F56°F55°F54°F54°F53°F53°F54°F56°F57°F59°F60°F61°F61°F59°F59°F59°F58°F
Cloudiness 9%1%1%1%2%2%2%0%1%2%3%3%2%0%3%3%3%3%3%0%0%1%18%34%45%100%100%98%90%72%60%0%0%0%0%0%0%0%0%0%0%2%11%51%75%84%75%66%
Visibility 6 mi6 mi6 mi6 mi6 mi6 mi6 mi6 mi6 mi6 mi6 mi6 mi6 mi6 mi6 mi6 mi6 mi6 mi6 mi6 mi6 mi6 mi6 mi6 mi6 mi5 mi6 mi6 mi6 mi6 mi6 mi6 mi6 mi6 mi6 mi6 mi6 mi6 mi6 mi6 mi6 mi6 mi6 mi6 mi6 mi6 mi6 mi6 mi
Precipitation 0%0%0%0%0%0%0%0%0%0%0%0%0%0%0%0%0%0%0%0%9%29%67%85%98%100%100%80%80%79%79%0%0%0%0%0%0%0%0%0%0%0%0%0%0%0%0%0%
Humidity 83%85%84%83%83%82%83%83%84%86%87%88%87%84%81%79%78%79%80%79%80%84%83%83%86%88%86%87%78%77%77%79%78%76%76%77%75%70%62%55%50%48%47%47%50%51%49%49%
Dew Point 64°F65°F64°F64°F64°F63°F64°F64°F64°F64°F65°F65°F65°F65°F65°F64°F65°F65°F65°F65°F66°F66°F59°F59°F56°F55°F55°F55°F53°F51°F50°F50°F49°F48°F48°F47°F46°F45°F44°F43°F42°F42°F42°F42°F43°F43°F42°F41°F
Pressure 29.91"29.91"29.91"29.91"29.88"29.88"29.88"29.85"29.85"29.85"29.85"29.83"29.85"29.85"29.83"29.8"29.8"29.77"29.74"29.71"29.71"29.71"29.77"29.8"29.83"29.85"29.85"29.85"29.85"29.85"29.88"29.88"29.88"29.88"29.88"29.91"29.91"29.94"29.94"29.91"29.91"29.88"29.88"29.88"29.88"29.88"29.91"29.91"
Wind Speed 10.2 mph10.9 mph11.2 mph11.6 mph12.1 mph12.7 mph13.7 mph14 mph14.3 mph15.6 mph15.9 mph16.1 mph16.7 mph17.6 mph18.7 mph19.3 mph20.2 mph21.3 mph21.8 mph21.7 mph21 mph16.6 mph18.6 mph21.2 mph24.5 mph17.5 mph14.5 mph13.3 mph18.6 mph19.7 mph19.5 mph19 mph19.3 mph19.5 mph18.9 mph18.5 mph18 mph18.3 mph18.7 mph18.9 mph19.1 mph20.2 mph21.8 mph22.6 mph19.4 mph16.7 mph14.3 mph12.8 mph
Wind
Direction
188°
S
187°
S
190°
S
192°
SSW
195°
SSW
195°
SSW
195°
SSW
197°
SSW
196°
SSW
191°
S
195°
SSW
196°
SSW
195°
SSW
195°
SSW
194°
SSW
193°
SSW
189°
S
186°
S
188°
S
194°
SSW
196°
SSW
207°
SSW
311°
NW
320°
NW
317°
NW
320°
NW
329°
NNW
295°
WNW
307°
NW
308°
NW
309°
NW
304°
NW
301°
WNW
302°
WNW
301°
WNW
300°
WNW
298°
WNW
300°
WNW
303°
WNW
302°
WNW
299°
WNW
299°
WNW
304°
NW
304°
NW
302°
WNW
311°
NW
314°
NW
310°
NW

Daily Forecast

Date High Low Precip. Humidity
Today
Oct 15

Clouds
73 °F
67 °F
0%
70%
Saturday
Oct 16

Rain
72 °F
59 °F
100%
78%
Sunday
Oct 17

Clear
62 °F
54 °F
80%
50%
Monday
Oct 18

Clear
65 °F
54 °F
0%
53%
Tuesday
Oct 19

Clear
69 °F
53 °F
0%
54%
Wednesday
Oct 20

Clear
71 °F
59 °F
0%
62%
Thursday
Oct 21

Clear
70 °F
63 °F
0%
66%
Friday
Oct 22

Rain
71 °F
65 °F
76%
77%
Saturday
Oct 23

Clouds
63 °F
60 °F
5%
65%
Sunday
Oct 24

Rain
57 °F
47 °F
49%
57%
Monday
Oct 25

Clouds
57 °F
47 °F
0%
55%
Tuesday
Oct 26

Clear
61 °F
48 °F
0%
55%
Wednesday
Oct 27

Clouds
60 °F
52 °F
0%
59%
Thursday
Oct 28

Rain
65 °F
61 °F
100%
69%
Friday
Oct 29

Rain
62 °F
57 °F
100%
80%
Saturday
Oct 30

Rain
61 °F
55 °F
100%
87%

Temperature 8-14 Day Outlook



Precipitation 8-14 Day Outlook




Quick Links
Ocean City News
Ocean City Photos
Ocean City Videos




About Us
Contact Us
Site Map
Search Site
Advertise With Us
   
OceanCity.USCoast.info
THE OCEAN CITY WEBSITE

Copyright 2021, Coastal Town
Privacy    |    Legal